SHT2G EGLL-EGCC

Flight info

Callsign SHT2G
Flight time 0h 34m
Altitude 18000
Route ULTIB T420 ELVOS
Aircraft A319/M-SDE3FGHIRWY/LB1

Departure

Time 2026-04-30 22:09
Airport London Heathrow Airport (EGLL)

Arrival

Time 2026-04-30 22:43
Airport Manchester Airport (EGCC)
Time Latitude Longitude Altitude Speed Heading
2026-04-30 21:35 51.46932 -0.48715 87 ft 0 kts 359°
2026-04-30 22:01 51.46913 -0.48715 89 ft 4 kts 359°
2026-04-30 22:01 51.46891 -0.48714 87 ft 4 kts 10°
2026-04-30 22:01 51.46877 -0.48731 87 ft 4 kts 84°
2026-04-30 22:02 51.46876 -0.48772 85 ft 4 kts 89°
2026-04-30 22:02 51.46876 -0.48793 85 ft 0 kts 89°
2026-04-30 22:05 51.46876 -0.48787 85 ft 3 kts 89°
2026-04-30 22:05 51.46877 -0.48711 86 ft 10 kts 89°
2026-04-30 22:05 51.46877 -0.48655 85 ft 12 kts 89°
2026-04-30 22:05 51.46876 -0.48522 88 ft 10 kts 99°
2026-04-30 22:06 51.46834 -0.48468 85 ft 9 kts 169°
2026-04-30 22:06 51.46645 -0.48472 89 ft 6 kts 181°
2026-04-30 22:06 51.46622 -0.48471 89 ft 5 kts 180°
2026-04-30 22:07 51.46560 -0.48471 89 ft 13 kts 179°
2026-04-30 22:07 51.46493 -0.48451 88 ft 5 kts 149°
2026-04-30 22:07 51.46469 -0.48390 90 ft 8 kts 108°
2026-04-30 22:07 51.46473 -0.48294 90 ft 10 kts 81°
2026-04-30 22:08 51.46477 -0.48022 86 ft 53 kts 90°
2026-04-30 22:08 51.46482 -0.47090 84 ft 113 kts 89°
2026-04-30 22:08 51.46491 -0.45557 87 ft 165 kts 89°
2026-04-30 22:08 51.46508 -0.43648 625 ft 173 kts 89°
2026-04-30 22:09 51.46684 -0.41658 1157 ft 189 kts 72°
2026-04-30 22:09 51.47390 -0.39756 1462 ft 209 kts 51°
2026-04-30 22:09 51.48350 -0.37858 1862 ft 236 kts 50°
2026-04-30 22:09 51.49464 -0.35701 2682 ft 250 kts 50°
2026-04-30 22:10 51.50589 -0.33537 3728 ft 255 kts 50°
2026-04-30 22:10 51.51732 -0.31332 4774 ft 259 kts 51°
2026-04-30 22:10 51.52600 -0.28779 5492 ft 266 kts 69°
2026-04-30 22:10 51.53265 -0.26002 5721 ft 266 kts 63°
2026-04-30 22:11 51.56107 -0.22510 5796 ft 265 kts 10°
2026-04-30 22:11 51.57905 -0.22596 5802 ft 264 kts 347°
2026-04-30 22:11 51.59712 -0.23279 5799 ft 265 kts 348°
2026-04-30 22:12 51.61386 -0.23894 6145 ft 268 kts 341°
2026-04-30 22:12 51.62250 -0.24444 6629 ft 269 kts 334°
2026-04-30 22:12 51.63750 -0.25781 7550 ft 271 kts 330°
2026-04-30 22:12 51.64599 -0.26570 8047 ft 272 kts 329°
2026-04-30 22:13 51.66269 -0.28148 9013 ft 276 kts 329°
2026-04-30 22:13 51.67902 -0.29707 9904 ft 280 kts 329°
2026-04-30 22:13 51.69623 -0.31358 10510 ft 297 kts 329°
2026-04-30 22:13 51.71466 -0.33133 10984 ft 315 kts 329°
2026-04-30 22:14 51.73365 -0.34970 11754 ft 321 kts 329°
2026-04-30 22:14 51.75292 -0.36833 12557 ft 325 kts 329°
2026-04-30 22:14 51.77224 -0.38701 13336 ft 329 kts 329°
2026-04-30 22:14 51.79226 -0.40640 14116 ft 333 kts 329°
2026-04-30 22:15 51.81204 -0.42556 14842 ft 337 kts 329°
2026-04-30 22:15 51.83223 -0.44514 15574 ft 340 kts 329°
2026-04-30 22:15 51.85250 -0.46483 16271 ft 344 kts 329°
2026-04-30 22:15 51.87314 -0.48493 16945 ft 348 kts 329°
2026-04-30 22:16 51.89400 -0.50523 17624 ft 352 kts 329°
2026-04-30 22:16 51.91485 -0.52555 17917 ft 354 kts 329°
2026-04-30 22:17 51.97608 -0.58523 18007 ft 335 kts 329°
2026-04-30 22:17 51.99584 -0.60451 18008 ft 335 kts 329°
2026-04-30 22:17 52.03574 -0.64353 18003 ft 334 kts 329°
2026-04-30 22:18 52.05591 -0.66337 18013 ft 334 kts 329°
2026-04-30 22:18 52.09551 -0.70240 18016 ft 334 kts 329°
2026-04-30 22:19 52.13519 -0.74153 18016 ft 334 kts 329°
2026-04-30 22:19 52.15507 -0.76118 18009 ft 334 kts 329°
2026-04-30 22:19 52.19488 -0.80051 18014 ft 334 kts 329°
2026-04-30 22:20 52.21500 -0.82037 18020 ft 334 kts 329°
2026-04-30 22:20 52.25457 -0.85956 18023 ft 334 kts 329°
2026-04-30 22:20 52.27468 -0.87952 18016 ft 334 kts 328°
2026-04-30 22:21 52.29427 -0.89898 18017 ft 334 kts 328°
2026-04-30 22:21 52.31446 -0.91906 18022 ft 334 kts 328°
2026-04-30 22:21 52.33407 -0.93856 18028 ft 334 kts 328°
2026-04-30 22:21 52.35399 -0.95841 18010 ft 334 kts 328°
2026-04-30 22:22 52.37391 -0.97826 18014 ft 334 kts 328°
2026-04-30 22:22 52.39281 -0.99710 18018 ft 334 kts 328°
2026-04-30 22:22 52.41329 -1.01759 18019 ft 334 kts 328°
2026-04-30 22:22 52.42674 -1.03110 18011 ft 334 kts 328°
2026-04-30 22:23 52.44630 -1.05075 18017 ft 334 kts 328°
2026-04-30 22:23 52.47279 -1.07731 18025 ft 334 kts 328°
2026-04-30 22:23 52.48597 -1.09053 18016 ft 334 kts 328°
2026-04-30 22:23 52.50583 -1.11045 18015 ft 334 kts 328°
2026-04-30 22:24 52.52542 -1.13017 18014 ft 334 kts 328°
2026-04-30 22:24 52.54520 -1.15014 18014 ft 334 kts 328°
2026-04-30 22:24 52.56501 -1.17009 18009 ft 334 kts 328°
2026-04-30 22:24 52.58490 -1.19009 18018 ft 334 kts 328°
2026-04-30 22:25 52.60468 -1.20998 18010 ft 334 kts 328°
2026-04-30 22:25 52.62453 -1.23000 18014 ft 334 kts 328°
2026-04-30 22:25 52.64433 -1.25003 18011 ft 334 kts 328°
2026-04-30 22:25 52.66411 -1.27009 18014 ft 334 kts 328°
2026-04-30 22:26 52.70348 -1.31010 18017 ft 334 kts 328°
2026-04-30 22:26 52.72320 -1.33013 18019 ft 334 kts 328°
2026-04-30 22:26 52.74304 -1.35033 18011 ft 334 kts 328°
2026-04-30 22:27 52.76274 -1.37041 17787 ft 327 kts 328°
2026-04-30 22:27 52.78189 -1.38996 17535 ft 320 kts 328°
2026-04-30 22:27 52.81910 -1.42805 16991 ft 310 kts 328°
2026-04-30 22:28 52.85557 -1.46541 16269 ft 307 kts 328°
2026-04-30 22:28 52.87376 -1.48403 15908 ft 305 kts 328°
2026-04-30 22:29 52.92745 -1.53912 14843 ft 300 kts 328°
2026-04-30 22:29 52.94516 -1.55735 14484 ft 298 kts 328°
2026-04-30 22:30 53.01553 -1.62992 13078 ft 295 kts 328°
2026-04-30 22:31 53.06440 -1.68984 12034 ft 290 kts 310°
2026-04-30 22:32 53.10332 -1.76562 11008 ft 285 kts 310°
2026-04-30 22:32 53.12381 -1.80525 10463 ft 283 kts 310°
2026-04-30 22:33 53.14116 -1.83882 10004 ft 281 kts 310°
2026-04-30 22:33 53.14434 -1.84499 9912 ft 281 kts 310°
2026-04-30 22:34 53.17622 -1.90711 9056 ft 277 kts 310°
2026-04-30 22:35 53.20118 -1.95585 8381 ft 275 kts 310°
2026-04-30 22:36 53.23729 -2.05763 7711 ft 258 kts 272°
2026-04-30 22:36 53.23656 -2.08696 7478 ft 254 kts 266°
2026-04-30 22:37 53.23350 -2.17147 6631 ft 252 kts 266°
2026-04-30 22:37 53.23246 -2.20096 6340 ft 251 kts 266°
2026-04-30 22:37 53.23041 -2.25877 5761 ft 249 kts 266°
2026-04-30 22:38 53.22899 -2.29706 5368 ft 247 kts 266°
2026-04-30 22:38 53.22677 -2.35425 4626 ft 251 kts 266°
2026-04-30 22:39 53.22563 -2.38391 3949 ft 258 kts 266°
2026-04-30 22:39 53.23806 -2.45810 3285 ft 210 kts 338°
2026-04-30 22:40 53.27231 -2.43352 2729 ft 189 kts 51°
2026-04-30 22:41 53.29495 -2.38611 1474 ft 161 kts 50°
2026-04-30 22:41 53.30814 -2.35935 920 ft 135 kts 54°
2026-04-30 22:42 53.33083 -2.31304 328 ft 125 kts 51°
2026-04-30 22:43 53.34069 -2.29257 234 ft 85 kts 52°
2026-04-30 22:43 53.34388 -2.28648 230 ft 10 kts 38°
2026-04-30 22:44 53.34480 -2.28555 234 ft 13 kts 26°
2026-04-30 22:45 53.34906 -2.27998 234 ft 18 kts 51°
2026-04-30 22:45 53.35008 -2.28038 233 ft 14 kts 320°
2026-04-30 22:46 53.35183 -2.28197 232 ft 16 kts
2026-04-30 22:47 53.35344 -2.28090 233 ft 17 kts 41°
2026-04-30 22:47 53.35529 -2.27800 233 ft 20 kts 44°
2026-04-30 22:48 53.35656 -2.27594 233 ft 5 kts 47°
2026-04-30 22:49 53.35760 -2.27378 233 ft 8 kts 51°
2026-04-30 22:49 53.35865 -2.27194 233 ft 8 kts 41°
2026-04-30 22:50 53.35905 -2.27114 233 ft 0 kts 53°